Location: Allen Fire Department Station 4
(33.1073°N, 96.6988°W)
Time: 12:00:14
(UTC+00:00)

Okean O Rocket - Pass Details

Date: 03 December 2021
Orbit: 621 x 645 km, 98.2° (Epoch: 24 January)

Event Time Altitude Azimuth Distance (km) Brightness Sun altitude
Rises 23:50:52 0° 128° (SE) 2,936 4.7 -6.8°
Reaches altitude 10° 23:53:43 10° 108° (ESE) 2,034 3.8 -7.4°
Maximum altitude 23:56:32 17° 68° (ENE) 1,631 3.1 -7.9°
Drops below altitude 10° 23:59:23 10° 28° (NNE) 2,046 3.8 -8.5°
Sets 00:02:15 0° 8° (N) 2,961 4.8 -9.0°
